Back to catalog

EDUSAT

AliveCommunicationsSSO
NORAD 37788·PAYLOAD·🇮🇹 Italy

Launched Aug 17, 2011 from Dombarovsky

Loading…

Next Passes (next 24 hours)

TLE

FreshSource: Space-Track

Epoch: Sep 13, 2026, 16:04 UTC

1 37788U 11044A   26256.66956556  .00000594  00000-0  92133-4 0  9992
2 37788  98.2573 156.3749 0033782 195.9280 222.3701 14.76654263809582

Track EDUSAT in real time with AllMySat

Download on the App Store